THORAD DELTA 1 DEB, 8168

Orbit data source: Space-Track

THORAD DELTA 1 DEB, 8168 is space debris in SSO originally from a launch on Fri, 15 Nov 1974 UTC launched from the Air Force Western Test Range (AFWTR). Debris objects in space refer to the collection of defunct objects orbiting the Earth. Examples of debris include non-operational satellites, rocket bodies, and fragments generated from explosions, collisions, or faulty payload assembly.

Loading next visibility...
Identifier
8168, 1974-089AJ
Orbit
SSO
Country
Flag of USUS
Related business
Manufacturer
Unknown
Mission
Spacecraft
Bus & Motor
Unknown
Mass
Unknown
Launch date (UTC)
1974-11-15 (52 years ago)
Launch vehicle
Unknown
Launch site
Air Force Western Test Range (AFWTR)
Object type
Payload
Rocket body
Debris
Shape & HBR
Unknown shape, 0.4 m
Radar Cross Section
Medium (>0.1 m² and <1 m²)

Expand to show TLE details & history
Last TLE update: 10 hours ago

TLE from 10 hours ago
0 THORAD DELTA 1 DEB
1 08168U 74089AJ  26208.37444266 -.00000009  00000-0  23842-3 0  9997
2 08168 101.9640 176.0444 0020781 205.0341 321.9299 12.52749994363576
Epoch: 2026-07-27T08:59Z
TLE epoch observation values (Epoch: 2026-07-27T08:59:11.845Z)
Latitude
12.85953°
Longitude
-81.05484°
Altitude
1,442.039 km
Speed
7.148 km/s
True Right ascension
23h 55m 12s
True Declination
12° 47' 30"
Sunlit
Object was in daylight at epoch
Visualization orbit readout
Latitude
Unknown
Longitude
Unknown
Altitude
Unknown
Speed
Unknown
Apparent Right ascension
Unknown
Apparent Declination
Unknown
Sunlit
N/A
Visualization observer readout
Local Sidereal Time
08:34:33
Azimuth
Unknown
Elevation
Unknown
Doppler factor
Unknown
Orbital elements
Apogee altitude
1,466.838 km
Perigee altitude
1,434.301 km
Semi-major axis
7,828.706 km
Eccentricity
0.00208
Inclination
101.964°
RAAN
176.0444°
Arg. of periapsis
205.0341°
True anomaly
321.78276°
Mean anomaly
321.9299°
Eccentric anomaly
321.85636°
Mean motion
3.13334 °/min
Orbital period
114.89 mins
BSTAR
0.00023842
Loading maneuver chart data...
Computing Atmospheric mass density...

Documentation

Showing up to 5 results
|